Regional Weather Roundup
Issued by NWS

Home | Current Version | Previous Version | Graphics & Text | Print | Product List | Glossary On
Versions: 1 2 3 4 5 6 7 8 9 10 11 12 13 14 15 16 17 18 19 20 21 22 23 24 25 26 27 28 29 30 31 32 33 34 35 36 37 38 39 40 41 42 43 44 45 46 47 48 49 50
000
ASUS45 KCYS 271810
RWRWY

WYOMING REGIONAL WEATHER ROUNDUP
NATIONAL WEATHER SERVICE CHEYENNE WY
1200 PM MDT FRI MAR 27 2015

NOTE:  "FAIR" INDICATES FEW OR NO CLOUDS BELOW 12,000 FEET
WITH NO SIGNIFICANT WEATHER AND/OR OBSTRUCTIONS TO VISIBILITY.

WYZ001-271900-
YELLOWSTONE NATIONAL PARK

CITY           SKY/WX    TMP DP  RH WIND       PRES   REMARKS
LK YELLOWSTONE   N/A     41  30  65 E6        30.34F
6HR MIN TEMP:  20; 6HR MAX TEMP:  42;

W YELLOWSTONE  NOT AVBL

$$
WYZ002>013-054>058-071-098>099-271900-
NORTHERN WYOMING

CITY           SKY/WX    TMP DP  RH WIND       PRES   REMARKS
JACKSON        SUNNY     43  34  70 CALM      30.33F
CODY           FAIR      63  28  27 W18G28    30.13F
GREYBULL       FAIR      62  33  33 SE3       30.12F
6HR MIN TEMP:  34; 6HR MAX TEMP:  62;

WORLAND        FAIR      62  34  35 CALM      30.13F
6HR MIN TEMP:  33; 6HR MAX TEMP:  62;

SHERIDAN       FAIR      67  32  27 NW23G32   30.05F
6HR MIN TEMP:  44; 6HR MAX TEMP:  67;

BUFFALO        FAIR      63  31  30 N22G28    30.09F
6HR MIN TEMP:  42; 6HR MAX TEMP:  64;

GILLETTE       FAIR      61  35  37 NW22G31   30.05F
6HR MIN TEMP:  41; 6HR MAX TEMP:  62;

HULETT         FAIR      59  37  44 NW13G21   30.06S
NEWCASTLE      FAIR      59  36  41 NW23G31   30.06F

$$
WYZ014>020-022>026-101>103-271900-
CENTRAL WYOMING

CITY           SKY/WX    TMP DP  RH WIND       PRES   REMARKS
BIG PINEY      FAIR      58  26  29 NW8G16    30.31F
6HR MIN TEMP:  26; 6HR MAX TEMP:  58;

PINEDALE       FAIR      54  30  40 NW18G26   30.32S
DUBOIS         FAIR      54  27  35 MISG      30.27F
LANDER         FAIR      62  28  27 E6        30.18F
6HR MIN TEMP:  36; 6HR MAX TEMP:  63;

RIVERTON       FAIR      60  31  33 VRB7      30.19F
6HR MIN TEMP:  43; 6HR MAX TEMP:  61;

CASPER         FAIR      62  31  31 W17G26    30.15F
6HR MIN TEMP:  42; 6HR MAX TEMP:  63;

DOUGLAS        FAIR      64  32  30 W21G33    30.11F
6HR MIN TEMP:  41; 6HR MAX TEMP:  64;


$$
WYZ021-027>030-104>119-271900-
SOUTHERN WYOMING

CITY           SKY/WX    TMP DP  RH WIND       PRES   REMARKS
EVANSTON       FAIR      55  31  39 SW6       30.36F
6HR MIN TEMP:  33; 6HR MAX TEMP:  55;

KEMMERER       FAIR      52  32  46 W10G18    30.36S
FORT BRIDGER   FAIR      60  31  33 W13G21    30.37F
ROCK SPRINGS   FAIR      55  30  38 W17       30.31F
6HR MIN TEMP:  37; 6HR MAX TEMP:  56;

DIXON          FAIR      56  31  38 W10       30.34F
RAWLINS        FAIR      56  29  35 W15G24    30.26F
6HR MIN TEMP:  36; 6HR MAX TEMP:  56;

SARATOGA       FAIR      55  30  38 W16G29    30.28F
LARAMIE        FAIR      54  28  36 W15       30.22F
6HR MIN TEMP:  31; 6HR MAX TEMP:  54;

CHEYENNE       FAIR      57  28  33 NW21G35   30.16F
6HR MIN TEMP:  44; 6HR MAX TEMP:  58;

TORRINGTON     FAIR      64  30  27 NW21G28   30.08F HAZE
6HR MIN TEMP:  37; 6HR MAX TEMP:  64; 6HR PCP: TRACE;

PINE BLUFFS    FAIR      63  32  31 NW24G31   30.13F

$$


USA.gov is the U.S. government's official web portal to all federal, state and local government web resources and services.